Погода в Касансае

Узбекистан     41°15′16″N   71°32′40″E
темп.,
°C
ветер,
м/с
пор.,
м/с
влажн.,
%
обл.,
%
осадки,
мм/ч
давл.,
гПа
погр.,
м
3 марта, ср
ср323:00+6с334896 0.0 102462
02:00+4с3454100 0.0 102373
05:00+4всв1260100 0.0 102431
08:00+4в1168100 0.2 1024134
11:00+3ссв2393100 1.8 1023274
14:00+3в1295100 0.9 1022190
17:00+4в2295100 1.3 1022175
20:00+4св2294100 0.5 1024160
4 марта, чт
чт423:00+3с2395100 1.4 1024133
02:00+4ссв348598 0.3 1023173
05:00+2ссв237883 0.3 102325
08:00+4с336864 0.0 102397
11:00+8ссв335871 0.0 1020707
14:00+9св225084 0.0 10181279
17:00+9ссз115092 0.0 10181022
20:00+7юз2664100 0.1 1020448
5 марта, пт
пт523:00+5св3387100 0.9 1022175
02:00+5вюв1290100 2.2 1023228
05:00+4юв2396100 2.8 1025229
08:00+5в1196100 0.3 1028112
11:00+5ю2287100 0.6 1028290
14:00+7в446977 0.3 1026743
17:00+7ссв336185 0.3 1025878
20:00+4с457346 0.0 1027123
6 марта, сб
сб623:00+3с455323 0.0 102691
02:00+3ссз44390 0.0 102269
05:00+3ссз333341 0.0 102027
08:00+5с223988 0.0 101727
11:00+11всв233094 0.0 1011491
14:00+13ююз4328100 0.0 1009654
17:00+10ююз2337100 0.0 1010342
20:00+8сз1149100 0.0 101222
7 марта, вс
вс723:00+7ю1152100 0.0 101523
02:00+6в1256100 0.0 101525
05:00+5юз2259100 0.0 101533
08:00+6з2365100 0.1 1017189
11:00+7ссв2264100 0.5 1017796
14:00+7з1170100 0.2 1016664
17:00+8сз1169100 0.3 1017536
20:00+7с2372100 0.1 1018208